Location: ????? ????
(37.9717°N, 23.4051°E)
Time: 04:58:21
(UTC+00:00)

COSMOS 2455 - Pass Details

Date: 18 April 2024
Orbit: 898 x 911 km, 67.1° (Epoch: 20 May)

Event Time Altitude Azimuth Distance (km) Brightness Sun altitude
Rises 18:35:07 0° 343° (NNW) 3,546 6.7 -17.1°
Reaches altitude 10° 18:38:15 10° 358° (N) 2,602 5.7 -17.7°
Maximum altitude 18:42:50 22° 48° (NE) 1,884 4.3 -18.4°
Enters shadow 18:44:51 19° 75° (ENE) 2,040 4.3 -18.8°
